This demonstration page uses our WeatherBlox Daily Observations layout. Learn more.

Left ArrowRight Arrow

38.80484, -77.04692

Hourly Observations for November 11, 2020

Temp ( °F °C ) Dew Point ( °F °C ) Humidity (%) Winds ( mph kmh ) Pressure ( in mb ) Visibility ( mi km ) Precip ( " mm )
12:52 am 00:52 Mostly Clear 63 17.2 60 15.6 90 90 S 6 9 30.1 1019 10 16.0934 0 0
1:52 am 01:52 Partly Cloudy 62 16.7 59 15 90 90 S 9 15 30.07 1018 10 16.0934 0 0
2:36 am 02:36 Cloudy 64 17.8 62 16.7 93 93 SSW 8 13 30.06 1018 10 16.0934 0 0
2:52 am 02:52 Cloudy 64 17.8 62 16.7 93 93 S 9 15 30.05 1018 10 16.0934 0 0
3:00 am 03:00 Mostly Cloudy 64 17.8 62 16.7 93 93 S 9 15 30.05 1018 10 16.0934 0 0
3:44 am 03:44 Cloudy 65 18.3 63 17.2 93 93 S 6 9 30.05 1018 10 16.0934 0 0
3:52 am 03:52 Cloudy 65 18.3 63 17.2 93 93 SSW 5 7 30.05 1018 10 16.0934 0 0
4:22 am 04:22 Cloudy 66 18.9 64 17.8 93 93 S 7 11 30.05 1018 10 16.0934 0 0
4:52 am 04:52 Cloudy 64 17.8 62 16.7 93 93 S 9 15 30.04 1017 10 16.0934 0 0
5:07 am 05:07 Cloudy 64 17.8 62 16.7 93 93 S 6 9 30.05 1018 10 16.0934 0 0
5:44 am 05:44 Cloudy 65 18.3 63 17.2 93 93 S 7 11 30.04 1017 10 16.0934 0 0
5:52 am 05:52 Cloudy 64 17.8 63 17.2 96 96 SSW 7 11 30.04 1017 10 16.0934 0 0
6:33 am 06:33 Cloudy 65 18.3 63 17.2 93 93 S 10 17 30.04 1017 10 16.0934 0 0
6:52 am 06:52 Cloudy 65 18.3 63 17.2 93 93 S 10 17 30.04 1017 9 14.48406 0 0
7:09 am 07:09 Cloudy 66 18.9 64 17.8 93 93 S 12 19 30.04 1017 10 16.0934 0 0
7:52 am 07:52 Cloudy with Light Rain 66 18.9 64 17.8 93 93 S 12 19 30.04 1017 7 11.26538 0.01 0.254
8:10 am 08:10 Cloudy with Rain 65 18.3 64 17.8 97 97 S 10 17 30.05 1018 4 6.43736 0.02 0.508
8:48 am 08:48 Cloudy with Light Rain 64 18 64 18 100 100 S 8 13 30.06 1018 6 9.65604 0.05 1.27
8:52 am 08:52 Cloudy with Light Rain 65 18.3 64 17.8 97 97 S 9 15 30.06 1018 6 9.65604 0.05 1.27
9:52 am 09:52 Cloudy with Rain 66 18.9 65 18.3 96 96 S 9 15 30.05 1018 2.5 4.02335 0.12 3.048
10:11 am 10:11 Cloudy with Rain 66 18.9 65 18.3 96 96 S 10 17 30.05 1018 3 4.82802 0.05 1.27
10:44 am 10:44 Cloudy with Light Rain 66 18.9 65 18.3 96 96 S 10 17 30.04 1017 5 8.0467 0.13 3.302
10:52 am 10:52 Cloudy with Light Rain 66 18.9 65 18.3 96 96 S 10 17 30.04 1017 7 11.26538 0.13 3.302
11:50 am 11:50 Cloudy with Rain 66 19 66 19 100 100 S 12 19 30.02 1017 2.5 4.02335 0.1 2.54
11:52 am 11:52 Cloudy with Rain 67 19.4 66 18.9 97 97 S 12 19 30.01 1016 3 4.82802 0.11 2.794
11:55 am 11:55 Cloudy with Rain 67 19.4 65 18.3 93 93 S 12 19 30.01 1016 3 4.82802 0.001 0.001
12:52 pm 12:52 Cloudy with Rain 66 18.9 65 18.3 96 96 S 9 15 29.97 1015 4 6.43736 0.12 3.048
1:13 pm 13:13 Cloudy with Rain 66 18.9 65 18.3 96 96 S 9 15 29.97 1015 2.5 4.02335 0.09 2.286
1:29 pm 13:29 Cloudy with Light Rain 67 19.4 66 18.9 97 97 S 9 15 29.96 1015 4 6.43736 0.15 3.81
1:52 pm 13:52 Mostly Cloudy with Light Rain 67 19.4 66 18.9 97 97 S 8 13 29.95 1014 7 11.26538 0.17 4.318
2:38 pm 14:38 Cloudy 68 20 66 18.9 93 93 S 7 11 29.93 1014 10 16.0934 0.01 0.254
2:45 pm 14:45 Cloudy with Light Rain 68 20 67 19.4 96 96 S 6 9 29.93 1014 10 16.0934 0.01 0.254
2:52 pm 14:52 Cloudy with Light Rain 68 20 66 18.9 93 93 SSE 12 19 29.93 1014 10 16.0934 0.01 0.254
3:03 pm 15:03 Cloudy with Light Rain 69 20.6 67 19.4 93 93 Calm 29.94 1014 9 14.48406 0.001 0.001
3:08 pm 15:08 Cloudy with Light Rain 69 20.6 67 19.4 93 93 SSW 7 11 29.93 1013 8 12.87472 0.01 0.254
3:18 pm 15:18 Cloudy with Light Rain 69 20.6 67 19.4 93 93 S 8 13 29.93 1013 6 9.65604 0.01 0.254
3:35 pm 15:35 Cloudy with Light Rain 68 20 67 19.4 96 96 S 10 17 29.93 1014 9 14.48406 0.02 0.508
3:45 pm 15:45 Cloudy with Light Rain 69 20.6 67 19.4 93 93 S 10 17 29.93 1013 8 12.87472 0.03 0.762
3:52 pm 15:52 Cloudy with Light Rain 69 20.6 67 19.4 93 93 S 13 20 29.93 1014 8 12.87472 0.03 0.762
4:09 pm 16:09 Cloudy with Light Rain 68 20 67 19.4 96 96 S 9 15 29.92 1013 7 11.26538 0.01 0.254
4:16 pm 16:16 Cloudy with Light Rain 68 20 66 18.9 93 93 S 9 15 29.92 1013 8 12.87472 0.01 0.254
4:52 pm 16:52 Cloudy with Light Rain 67 19.4 66 18.9 97 97 S 10 17 29.92 1013 7 11.26538 0.02 0.508
5:01 pm 17:01 Cloudy with Light Rain 68 20 67 19.4 96 96 S 10 17 29.93 1014 10 16.0934 0.001 0.001
5:52 pm 17:52 Cloudy with Light Rain 67 19.4 66 18.9 97 97 S 7 11 29.93 1014 10 16.0934 0.03 0.762
5:59 pm 17:59 Cloudy with Light Rain 68 20 67 19.4 96 96 SSW 5 7 29.93 1014 10 16.0934 0.001 0.001
6:52 pm 18:52 Cloudy with Light Rain 67 19.4 67 19.4 100 100 S 8 13 29.93 1014 9 14.48406 0.01 0.254
6:59 pm 18:59 Cloudy with Light Rain 67 19.4 67 19.4 100 100 S 8 13 29.94 1014 10 16.0934 0.001 0.001
7:41 pm 19:41 Cloudy 69 20.6 68 20 96 96 SSW 6 9 29.93 1013 10 16.0934 0.001 0.001
7:52 pm 19:52 Cloudy with Mist and Fog 68 20 68 20 100 100 S 6 9 29.93 1014 5 8.0467 0.001 0.001
8:52 pm 20:52 Cloudy with Mist and Fog 69 20.6 69 20.6 100 100 Calm 29.93 1014 6 9.65604 0 0
9:04 pm 21:04 Cloudy with Drizzle 68 20 68 20 100 100 Calm 29.94 1014 5 8.0467 0.001 0.001
9:07 pm 21:07 Cloudy with Light Rain 67 19.4 67 19.4 100 100 S 3 6 29.94 1014 1.75 2.816345 0.001 0.001
9:19 pm 21:19 Cloudy with Rain 68 20 67 19.4 96 96 S 3 6 29.93 1014 1.75 2.816345 0.02 0.508
9:26 pm 21:26 Cloudy with Rain 68 20 68 20 100 100 S 3 6 29.93 1014 3 4.82802 0.04 1.016
9:52 pm 21:52 Cloudy with Rain 69 20.6 69 20.6 100 100 SE 3 6 29.92 1013 2 3.21868 0.14 3.556
9:54 pm 21:54 Cloudy with Rain 69 20.6 68 20 96 96 Calm 29.92 1013 1.25 2.011675 0.01 0.254
9:58 pm 21:58 Cloudy with Rain 68 20 68 20 100 100 Calm 29.92 1013 0.75 1.207005 0.02 0.508
10:15 pm 22:15 Cloudy with Rain 68 20 68 20 100 100 Calm 29.91 1013 0.75 1.207005 0.09 2.286
10:18 pm 22:18 Cloudy with Rain 68 20 68 20 100 100 SE 3 6 29.91 1013 0.5 0.80467 0.11 2.794
10:52 pm 22:52 Cloudy with Heavy Rain 68 20 68 20 100 100 S 7 11 29.91 1013 0.75 1.207005 0.22 5.588
11:15 pm 23:15 Cloudy with Heavy Rain 69 20.6 69 20.6 100 100 Calm 29.91 1013 1.5 2.41401 0.19 4.826
11:19 pm 23:19 Cloudy with Rain 69 20.6 69 20.6 100 100 Calm 29.91 1013 2 3.21868 0.22 5.588
11:23 pm 23:23 Cloudy with Light Rain 69 20.6 69 20.6 100 100 Calm 29.9 1012 3 4.82802 0.22 5.588
11:29 pm 23:29 Cloudy with Heavy Rain 69 20.6 69 20.6 100 100 Calm 29.91 1013 1.75 2.816345 0.25 6.35
11:41 pm 23:41 Cloudy with Heavy Rain 69 20.6 69 20.6 100 100 NNW 3 6 29.91 1013 0.5 0.80467 0.66 16.764
11:47 pm 23:47 Cloudy with Heavy Rain 70 21 70 21 100 100 Calm 29.9 1012 1 1.60934 0.8 20.32
11:52 pm 23:52 Cloudy with Rain 69 20.6 69 20.6 100 100 SSE 5 7 29.89 1012 2 3.21868 0.83 21.082

Powered by AerisWeather